Home   Weather   Kryvyi Rih   Past weeks

Flag for Ukraine Past Weather in Kryvyi Rih, Ukraine — Yesterday and Last 2 Weeks

Now
48 °F

Clear.


Feels Like: 46 °F
Forecast: 47 / 78 °F
Wind: 6 mph from Southeast

Location: Krivyy Rih / Dnipropetrovs'k

Current Time: Apr 29, 2017 at 3:21:15 am

Latest Report: Apr 29, 2017 at 3:00 am


Visibility: 10 mi

Pressure: 30.04 "Hg

Humidity: 76%

Dew Point: 41 °F

Location of Kryvyi RihLocation

Past Weather in Kryvyi Rih — Graph

°F

Kryvyi Rih Temperature Yesterday

Maximum temperature yesterday: 73 °F (at 4:00 pm)
Minimum temperature yesterday: 41 °F (at 5:00 am)
Average temperature yesterday: 59 °F

High & Low Weather Summary for the Past Weeks

 TemperatureHumidityPressure
High73 °F (Apr 28, 4:00 pm)100% (Apr 17, 1:00 am)30.24 "Hg (Apr 17, 1:00 am)
Low30 °F (Apr 20, 2:00 am)18% (Apr 27, 3:00 pm)29.65 "Hg (Apr 14, 3:00 am)
Average45 °F66%29.95 "Hg
* Reported Apr 14 2:00 am — Apr 29 2:00 am, Kryvyi Rih, Weather by CustomWeather, © 2017

Note: Actual official high and low records may vary slightly from our data, if they occured in-between our weather recording intervals... More about our weather records

Advertising

Kryvyi Rih Weather History for the Previous 24 Hours

Scroll right to see more
 ConditionsComfort  
Time TempWeatherWind HumidityBarometerVisibility
2:00 am
Sat, Apr 29
50 °FClear.6 mph67%30.04 "Hg10 mi
1:30 am52 °FClear.6 mph67%30.04 "Hg10 mi
1:00 am52 °FClear.8 mph67%30.04 "Hg10 mi
12:30 am55 °FPassing clouds.8 mph59%30.04 "HgN/A
12:00 am55 °FClear.8 mph59%30.04 "Hg10 mi
11:30 pm
Fri, Apr 28
55 °FPassing clouds.3 mph44%30.01 "HgN/A
11:00 pm55 °FClear.8 mph44%30.01 "Hg10 mi
10:30 pm55 °FClear.6 mph38%30.01 "Hg10 mi
10:00 pm55 °FClear.6 mph38%30.01 "Hg10 mi
9:00 pm61 °FClear.3 mph36%30.04 "Hg10 mi
8:30 pm66 °FClear.6 mph32%30.04 "Hg10 mi
8:00 pm66 °FClear.6 mph32%30.04 "Hg10 mi
7:30 pm68 °FSunny.6 mph33%30.01 "Hg10 mi
7:00 pm68 °FSunny.6 mph33%30.04 "Hg10 mi
6:30 pm72 °FPassing clouds.8 mph25%30.01 "HgN/A
6:00 pm72 °FPassing clouds.6 mph25%30.04 "HgN/A
5:30 pm73 °FPassing clouds.10 mph22%30.04 "HgN/A
5:00 pm73 °FPassing clouds.10 mph22%30.04 "HgN/A
4:30 pm73 °FSunny.13 mph20%30.04 "Hg10 mi
4:00 pm73 °FPassing clouds.8 mph20%30.04 "HgN/A
3:00 pm72 °FPassing clouds.8 mph20%30.07 "HgN/A
2:30 pm72 °FPassing clouds.8 mph25%30.07 "HgN/A
2:00 pm72 °FPassing clouds.8 mph25%30.09 "HgN/A
1:30 pm72 °FPassing clouds.8 mph25%30.09 "HgN/A
1:00 pm72 °FPassing clouds.8 mph25%30.09 "HgN/A
12:30 pm68 °FPassing clouds.8 mph24%30.09 "HgN/A
12:00 pm68 °FPassing clouds.10 mph24%30.09 "HgN/A
11:30 am68 °FPassing clouds.10 mph40%30.12 "HgN/A
10:30 am64 °FPassing clouds.10 mph46%30.12 "HgN/A
10:00 am64 °FPassing clouds.6 mph46%30.12 "HgN/A
9:30 am57 °FPassing clouds.6 mph55%30.12 "HgN/A
9:00 am57 °FPassing clouds.3 mph55%30.12 "HgN/A
8:30 am52 °FSunny.6 mph58%30.12 "Hg10 mi
8:00 am52 °FSunny.8 mph58%30.12 "Hg10 mi
7:30 am48 °FSunny.6 mph62%30.12 "Hg10 mi
7:00 am48 °FSunny.6 mph62%30.12 "Hg10 mi
6:30 am43 °FSunny.8 mph61%30.12 "Hg10 mi
6:00 am43 °FSunny.6 mph61%30.12 "Hg10 mi
5:30 am41 °FClear.3 mph61%30.12 "Hg10 mi
5:00 am41 °FClear.3 mph61%30.12 "Hg10 mi
4:30 am43 °FClear.6 mph61%30.12 "Hg10 mi
4:00 am43 °FClear.6 mph61%30.12 "Hg10 mi
3:30 am48 °FClear.6 mph54%30.12 "Hg10 mi
3:00 am48 °FClear.6 mph54%30.12 "Hg10 mi
Weather by CustomWeather, © 2017

See weather overviewHow to use our weather pages